Time,TemperatureF,DewpointF,PressureIn,WindDirection,WindDirectionDegrees,WindSpeedMPH,WindSpeedGustMPH,Humidity,HourlyPrecipIn,Conditions,Clouds,dailyrainin,SolarRadiationWatts/m^2,SoftwareType,DateUTC
2013-08-29 00:02:00,75.1,72.0,29.40,SSE,168,6.0,7.2,89,0.00,,,0.00,4,TxWx,2013-08-29 05:02:00,
2013-08-29 00:07:00,75.1,72.0,29.40,SSE,156,3.9,3.9,90,0.00,,,0.00,4,TxWx,2013-08-29 05:07:00,
2013-08-29 00:12:00,75.0,72.0,29.40,SE,144,3.3,3.3,90,0.00,,,0.00,4,TxWx,2013-08-29 05:12:00,
2013-08-29 00:17:00,74.9,72.0,29.40,SE,138,3.6,3.9,90,0.00,,,0.00,4,TxWx,2013-08-29 05:17:00,
2013-08-29 00:22:00,75.0,72.0,29.40,SE,126,4.8,4.8,90,0.00,,,0.00,4,TxWx,2013-08-29 05:22:00,
2013-08-29 00:27:00,74.9,72.0,29.40,ESE,116,1.8,2.1,90,0.00,,,0.00,4,TxWx,2013-08-29 05:27:00,
2013-08-29 00:32:00,75.0,72.0,29.40,South,171,6.0,6.6,91,0.00,,,0.00,4,TxWx,2013-08-29 05:32:00,
2013-08-29 00:37:00,75.0,72.0,29.41,SSE,158,5.4,5.4,90,0.00,,,0.00,4,TxWx,2013-08-29 05:37:00,
2013-08-29 00:42:00,75.0,72.0,29.41,SE,136,3.9,4.2,91,0.00,,,0.00,4,TxWx,2013-08-29 05:42:00,
2013-08-29 00:47:00,75.0,72.0,29.41,SSE,160,3.6,3.9,91,0.00,,,0.00,4,TxWx,2013-08-29 05:47:00,
2013-08-29 00:52:00,74.9,72.0,29.41,SE,138,7.8,7.8,91,0.00,,,0.00,4,TxWx,2013-08-29 05:52:00,
2013-08-29 00:57:00,74.8,72.0,29.41,SE,139,6.0,6.6,91,0.00,,,0.00,4,TxWx,2013-08-29 05:57:00,
2013-08-29 01:02:00,74.8,72.0,29.41,South,174,3.0,3.3,91,0.00,,,0.00,4,TxWx,2013-08-29 06:02:00,
2013-08-29 01:07:00,74.7,72.0,29.41,SE,142,7.8,8.4,91,0.00,,,0.00,4,TxWx,2013-08-29 06:07:00,
2013-08-29 01:12:00,74.6,72.0,29.41,SSE,152,5.7,5.7,92,0.00,,,0.00,4,TxWx,2013-08-29 06:12:00,
2013-08-29 01:17:00,74.6,72.0,29.41,SSE,150,4.8,5.4,92,0.00,,,0.00,4,TxWx,2013-08-29 06:17:00,
2013-08-29 01:22:00,74.6,72.0,29.40,South,169,5.7,6.3,92,0.00,,,0.00,4,TxWx,2013-08-29 06:22:00,
2013-08-29 01:27:00,74.7,72.0,29.40,SSE,163,7.2,7.8,92,0.00,,,0.00,4,TxWx,2013-08-29 06:27:00,
2013-08-29 01:32:00,74.9,72.0,29.40,ESE,109,4.2,4.2,91,0.00,,,0.00,4,TxWx,2013-08-29 06:32:00,
2013-08-29 01:37:00,75.0,72.0,29.40,SSE,150,5.1,6.3,91,0.00,,,0.00,4,TxWx,2013-08-29 06:37:00,
2013-08-29 01:42:00,75.0,72.0,29.40,SE,146,6.6,6.6,91,0.00,,,0.00,4,TxWx,2013-08-29 06:42:00,
2013-08-29 01:47:00,75.0,72.0,29.40,SE,144,6.3,6.3,91,0.00,,,0.00,4,TxWx,2013-08-29 06:47:00,
2013-08-29 01:52:00,74.9,72.0,29.40,SSE,151,7.2,7.2,91,0.00,,,0.00,4,TxWx,2013-08-29 06:52:00,
2013-08-29 01:57:00,74.8,72.0,29.40,South,176,4.5,4.5,91,0.00,,,0.00,4,TxWx,2013-08-29 06:57:00,
2013-08-29 02:02:00,74.7,72.0,29.40,SE,140,3.6,4.5,91,0.00,,,0.00,4,TxWx,2013-08-29 07:02:00,
2013-08-29 02:07:00,74.6,72.0,29.40,SSE,158,6.0,6.3,91,0.00,,,0.00,4,TxWx,2013-08-29 07:07:00,
2013-08-29 02:12:00,74.5,71.0,29.40,SE,142,2.7,3.0,92,0.00,,,0.00,4,TxWx,2013-08-29 07:12:00,
2013-08-29 02:17:00,74.5,71.0,29.41,SE,132,3.3,3.6,92,0.00,,,0.00,4,TxWx,2013-08-29 07:17:00,
2013-08-29 02:22:00,74.5,72.0,29.40,SE,129,4.8,5.1,92,0.00,,,0.00,4,TxWx,2013-08-29 07:22:00,
2013-08-29 02:27:00,74.5,72.0,29.40,SE,143,5.1,5.7,92,0.00,,,0.00,4,TxWx,2013-08-29 07:27:00,
2013-08-29 02:32:00,74.4,72.0,29.41,SE,124,5.7,5.7,92,0.00,,,0.00,4,TxWx,2013-08-29 07:32:00,
2013-08-29 02:37:00,74.3,72.0,29.40,SE,144,4.2,4.2,93,0.00,,,0.00,4,TxWx,2013-08-29 07:37:00,
2013-08-29 02:42:00,74.2,72.0,29.40,SSW,196,4.2,4.2,93,0.00,,,0.00,4,TxWx,2013-08-29 07:42:00,
2013-08-29 02:47:00,74.2,72.0,29.40,SE,132,1.8,1.8,93,0.00,,,0.00,4,TxWx,2013-08-29 07:47:00,
2013-08-29 02:52:00,74.3,72.0,29.40,SSE,159,4.8,5.4,93,0.00,,,0.00,4,TxWx,2013-08-29 07:52:00,
2013-08-29 02:57:00,74.3,72.0,29.40,SSE,147,4.2,4.2,93,0.00,,,0.00,4,TxWx,2013-08-29 07:57:00,
2013-08-29 03:02:00,74.3,72.0,29.40,South,185,5.7,6.6,93,0.00,,,0.00,4,TxWx,2013-08-29 08:02:00,
2013-08-29 03:07:00,74.3,72.0,29.40,SSE,157,5.1,6.3,93,0.00,,,0.00,4,TxWx,2013-08-29 08:07:00,
2013-08-29 03:12:00,74.3,72.0,29.40,SSE,157,6.9,6.9,93,0.00,,,0.00,4,TxWx,2013-08-29 08:12:00,
2013-08-29 03:17:00,74.3,72.0,29.40,South,187,4.8,4.8,93,0.00,,,0.00,4,TxWx,2013-08-29 08:17:00,
2013-08-29 03:22:00,74.3,72.0,29.40,SE,132,6.9,7.8,93,0.00,,,0.00,4,TxWx,2013-08-29 08:22:00,
2013-08-29 03:27:00,74.2,72.0,29.40,South,172,4.5,4.5,93,0.00,,,0.00,4,TxWx,2013-08-29 08:27:00,
2013-08-29 03:32:00,74.1,72.0,29.40,SSE,161,5.4,5.4,93,0.00,,,0.00,4,TxWx,2013-08-29 08:32:00,
2013-08-29 03:37:00,74.0,72.0,29.40,SE,139,3.3,3.3,93,0.00,,,0.00,4,TxWx,2013-08-29 08:37:00,
2013-08-29 03:42:00,74.1,72.0,29.40,SSE,164,3.0,3.6,94,0.00,,,0.00,4,TxWx,2013-08-29 08:42:00,
2013-08-29 03:47:00,74.1,72.0,29.40,SE,129,6.0,6.3,94,0.00,,,0.00,4,TxWx,2013-08-29 08:47:00,
2013-08-29 03:52:00,74.1,72.0,29.40,SE,143,3.6,3.6,94,0.00,,,0.00,4,TxWx,2013-08-29 08:52:00,
2013-08-29 03:57:00,74.0,72.0,29.40,SE,133,6.6,6.6,94,0.00,,,0.00,4,TxWx,2013-08-29 08:57:00,
2013-08-29 04:02:00,73.8,72.0,29.40,SE,131,6.6,6.6,94,0.00,,,0.00,4,TxWx,2013-08-29 09:02:00,
2013-08-29 04:07:00,73.8,72.0,29.40,SSE,156,3.9,3.9,94,0.00,,,0.00,4,TxWx,2013-08-29 09:07:00,
2013-08-29 04:12:00,73.9,72.0,29.40,South,190,5.1,5.4,94,0.00,,,0.00,4,TxWx,2013-08-29 09:12:00,
2013-08-29 04:17:00,74.0,72.0,29.40,SSE,154,3.6,3.6,94,0.00,,,0.00,4,TxWx,2013-08-29 09:17:00,
2013-08-29 04:22:00,73.9,72.0,29.40,SSE,150,3.3,3.3,94,0.00,,,0.00,4,TxWx,2013-08-29 09:22:00,
2013-08-29 04:27:00,73.9,72.0,29.40,SE,132,4.5,4.5,94,0.00,,,0.00,4,TxWx,2013-08-29 09:27:00,
2013-08-29 04:32:00,73.8,72.0,29.40,SE,137,6.3,6.3,94,0.00,,,0.00,4,TxWx,2013-08-29 09:32:00,
2013-08-29 04:37:00,73.6,72.0,29.39,ESE,113,5.4,5.4,95,0.00,,,0.00,4,TxWx,2013-08-29 09:37:00,
2013-08-29 04:42:00,73.5,71.0,29.39,SE,145,3.6,3.6,95,0.00,,,0.00,4,TxWx,2013-08-29 09:42:00,
2013-08-29 04:47:00,73.4,71.0,29.39,ESE,104,4.8,5.7,95,0.00,,,0.00,4,TxWx,2013-08-29 09:47:00,
2013-08-29 04:52:00,73.4,72.0,29.40,ESE,116,6.3,6.9,96,0.00,,,0.00,4,TxWx,2013-08-29 09:52:00,
2013-08-29 04:57:00,73.4,72.0,29.40,SE,130,6.6,6.9,96,0.00,,,0.00,4,TxWx,2013-08-29 09:57:00,
2013-08-29 05:02:00,73.4,72.0,29.39,SSE,150,2.7,3.0,96,0.00,,,0.00,4,TxWx,2013-08-29 10:02:00,
2013-08-29 05:07:00,73.4,72.0,29.40,SE,135,5.4,5.4,96,0.00,,,0.00,4,TxWx,2013-08-29 10:07:00,
2013-08-29 05:12:00,73.4,72.0,29.41,ESE,108,5.7,6.3,96,0.00,,,0.00,4,TxWx,2013-08-29 10:12:00,
2013-08-29 05:17:00,73.3,72.0,29.42,East,80,6.0,6.0,96,0.00,,,0.00,4,TxWx,2013-08-29 10:17:00,
2013-08-29 05:22:00,73.4,72.0,29.41,ESE,118,5.7,5.7,96,0.00,,,0.00,4,TxWx,2013-08-29 10:22:00,
2013-08-29 05:27:00,73.5,73.0,29.41,SE,137,2.7,3.0,96,0.00,,,0.00,4,TxWx,2013-08-29 10:27:00,
2013-08-29 05:32:00,73.5,73.0,29.42,East,87,6.6,6.6,96,0.00,,,0.00,4,TxWx,2013-08-29 10:32:00,
2013-08-29 05:37:00,73.5,73.0,29.42,ENE,71,8.4,9.0,96,0.00,,,0.00,4,TxWx,2013-08-29 10:37:00,
2013-08-29 05:42:00,73.4,72.0,29.42,East,85,17.1,17.1,96,0.00,,,0.00,4,TxWx,2013-08-29 10:42:00,
2013-08-29 05:47:00,73.5,72.0,29.42,East,99,4.5,5.4,96,0.00,,,0.00,4,TxWx,2013-08-29 10:47:00,
2013-08-29 05:52:00,73.5,73.0,29.42,ESE,102,9.9,9.9,96,0.00,,,0.00,4,TxWx,2013-08-29 10:52:00,
2013-08-29 05:57:00,73.6,73.0,29.42,SE,128,6.9,6.9,96,0.00,,,0.00,4,TxWx,2013-08-29 10:57:00,
2013-08-29 06:02:00,73.6,73.0,29.41,SE,130,6.6,6.6,96,0.00,,,0.00,4,TxWx,2013-08-29 11:02:00,
2013-08-29 06:07:00,73.7,73.0,29.41,SSE,149,4.5,5.1,96,0.00,,,0.00,4,TxWx,2013-08-29 11:07:00,
2013-08-29 06:12:00,73.7,73.0,29.41,SE,133,3.6,4.5,96,0.00,,,0.00,4,TxWx,2013-08-29 11:12:00,
2013-08-29 06:17:00,73.7,73.0,29.40,SSE,168,8.7,8.7,96,0.00,,,0.00,5,TxWx,2013-08-29 11:17:00,
2013-08-29 06:22:00,73.6,73.0,29.40,SSE,153,3.9,3.9,96,0.00,,,0.00,5,TxWx,2013-08-29 11:22:00,
2013-08-29 06:27:00,73.6,73.0,29.40,SSE,161,7.2,7.2,96,0.00,,,0.00,6,TxWx,2013-08-29 11:27:00,
2013-08-29 06:32:00,73.6,73.0,29.40,SSE,157,6.6,6.9,96,0.00,,,0.00,7,TxWx,2013-08-29 11:32:00,
2013-08-29 06:37:00,73.7,73.0,29.40,South,181,4.2,4.5,96,0.00,,,0.00,8,TxWx,2013-08-29 11:37:00,
2013-08-29 06:42:00,73.8,73.0,29.40,SSE,163,6.6,8.1,96,0.00,,,0.00,10,TxWx,2013-08-29 11:42:00,
2013-08-29 06:47:00,73.8,73.0,29.40,SSW,196,9.9,9.9,96,0.00,,,0.00,11,TxWx,2013-08-29 11:47:00,
2013-08-29 06:52:00,73.9,73.0,29.41,SSW,207,5.7,5.7,96,0.00,,,0.00,11,TxWx,2013-08-29 11:52:00,
2013-08-29 06:57:00,74.0,73.0,29.41,South,176,3.3,4.2,96,0.00,,,0.00,13,TxWx,2013-08-29 11:57:00,
2013-08-29 07:02:00,74.0,73.0,29.41,South,181,4.5,5.7,96,0.00,,,0.00,17,TxWx,2013-08-29 12:02:00,
2013-08-29 07:07:00,74.1,73.0,29.41,SSE,167,4.2,4.2,97,0.00,,,0.00,21,TxWx,2013-08-29 12:07:00,
2013-08-29 07:12:00,74.1,73.0,29.41,ESE,114,3.3,3.3,97,0.00,,,0.00,23,TxWx,2013-08-29 12:12:00,
2013-08-29 07:17:00,74.2,73.0,29.41,ESE,118,2.4,2.4,97,0.00,,,0.00,21,TxWx,2013-08-29 12:17:00,
2013-08-29 07:22:00,74.1,73.0,29.41,SSE,149,1.2,1.2,97,0.00,,,0.00,22,TxWx,2013-08-29 12:22:00,
2013-08-29 07:27:00,74.1,73.0,29.41,SSE,149,2.7,2.7,97,0.00,,,0.00,31,TxWx,2013-08-29 12:27:00,
2013-08-29 07:32:00,74.1,73.0,29.41,SE,137,3.9,3.9,97,0.00,,,0.00,59,TxWx,2013-08-29 12:32:00,
2013-08-29 07:37:00,74.1,73.0,29.41,ESE,119,6.0,6.3,97,0.00,,,0.00,46,TxWx,2013-08-29 12:37:00,
2013-08-29 07:42:00,74.1,73.0,29.41,ESE,117,4.8,4.8,97,0.00,,,0.00,71,TxWx,2013-08-29 12:42:00,
2013-08-29 07:47:00,74.0,73.0,29.41,SSE,151,6.0,6.9,97,0.00,,,0.00,76,TxWx,2013-08-29 12:47:00,
2013-08-29 07:52:00,74.0,73.0,29.41,SE,134,4.2,4.5,97,0.00,,,0.00,61,TxWx,2013-08-29 12:52:00,
2013-08-29 07:57:00,74.1,73.0,29.41,ESE,104,6.6,7.2,97,0.00,,,0.00,53,TxWx,2013-08-29 12:57:00,
2013-08-29 08:02:00,74.1,73.0,29.41,SE,141,5.1,5.4,97,0.00,,,0.00,85,TxWx,2013-08-29 13:02:00,
2013-08-29 08:07:00,74.3,73.0,29.41,SSE,155,1.2,2.1,97,0.00,,,0.00,134,TxWx,2013-08-29 13:07:00,
2013-08-29 08:12:00,74.6,74.0,29.41,SSE,151,4.8,5.1,97,0.00,,,0.00,123,TxWx,2013-08-29 13:12:00,
2013-08-29 08:17:00,74.9,74.0,29.41,South,185,7.2,7.2,97,0.00,,,0.00,103,TxWx,2013-08-29 13:17:00,
2013-08-29 08:22:00,75.2,74.0,29.41,ESE,123,4.5,4.5,97,0.00,,,0.00,223,TxWx,2013-08-29 13:22:00,
2013-08-29 08:27:00,75.5,75.0,29.40,South,182,3.6,3.6,96,0.00,,,0.00,122,TxWx,2013-08-29 13:27:00,
2013-08-29 08:32:00,75.9,74.0,29.40,South,186,4.8,5.4,95,0.00,,,0.00,304,TxWx,2013-08-29 13:32:00,
2013-08-29 08:37:00,76.4,74.0,29.40,South,179,2.1,2.7,95,0.00,,,0.00,216,TxWx,2013-08-29 13:37:00,
2013-08-29 08:42:00,76.9,75.0,29.40,ESE,103,0.0,0.0,93,0.00,,,0.00,373,TxWx,2013-08-29 13:42:00,
2013-08-29 08:47:00,77.1,74.0,29.40,SSE,147,0.9,1.5,92,0.00,,,0.00,393,TxWx,2013-08-29 13:47:00,
2013-08-29 08:52:00,77.4,74.0,29.40,SSE,167,7.2,8.1,90,0.00,,,0.00,402,TxWx,2013-08-29 13:52:00,
2013-08-29 08:57:00,77.6,75.0,29.40,East,99,6.3,6.3,90,0.00,,,0.00,422,TxWx,2013-08-29 13:57:00,
2013-08-29 09:02:00,77.5,75.0,29.40,South,185,7.2,7.5,90,0.00,,,0.00,428,TxWx,2013-08-29 14:02:00,
2013-08-29 09:07:00,77.9,75.0,29.40,South,184,5.7,5.7,90,0.00,,,0.00,436,TxWx,2013-08-29 14:07:00,
2013-08-29 09:12:00,78.1,74.0,29.41,SSW,196,7.5,7.5,88,0.00,,,0.00,444,TxWx,2013-08-29 14:12:00,
2013-08-29 09:17:00,78.5,75.0,29.41,SSW,192,0.0,0.0,89,0.00,,,0.00,458,TxWx,2013-08-29 14:17:00,
2013-08-29 09:22:00,79.1,75.0,29.42,SW,214,1.5,1.5,88,0.00,,,0.00,460,TxWx,2013-08-29 14:22:00,
2013-08-29 09:27:00,79.4,74.0,29.42,South,175,5.1,5.1,86,0.00,,,0.00,437,TxWx,2013-08-29 14:27:00,
2013-08-29 09:32:00,79.5,74.0,29.42,South,190,2.7,3.3,85,0.00,,,0.00,482,TxWx,2013-08-29 14:32:00,
2013-08-29 09:37:00,79.7,75.0,29.42,SSW,196,3.3,4.2,85,0.00,,,0.00,484,TxWx,2013-08-29 14:37:00,
2013-08-29 09:42:00,80.2,75.0,29.42,SW,216,2.4,2.7,84,0.00,,,0.00,504,TxWx,2013-08-29 14:42:00,
2013-08-29 09:47:00,80.3,74.0,29.42,South,178,3.3,4.5,83,0.00,,,0.00,499,TxWx,2013-08-29 14:47:00,
2013-08-29 09:52:00,80.7,75.0,29.42,SSE,166,6.3,6.3,83,0.00,,,0.00,520,TxWx,2013-08-29 14:52:00,
2013-08-29 09:57:00,80.8,75.0,29.41,SE,132,9.6,9.9,82,0.00,,,0.00,521,TxWx,2013-08-29 14:57:00,
2013-08-29 10:02:00,81.3,75.0,29.41,SE,125,3.9,4.5,83,0.00,,,0.00,535,TxWx,2013-08-29 15:02:00,
2013-08-29 10:07:00,81.4,74.0,29.41,SE,135,7.2,7.2,81,0.00,,,0.00,549,TxWx,2013-08-29 15:07:00,
2013-08-29 10:12:00,81.4,74.0,29.42,SE,124,9.9,9.9,80,0.00,,,0.00,555,TxWx,2013-08-29 15:12:00,
2013-08-29 10:17:00,81.9,75.0,29.41,SE,130,10.8,12.0,80,0.00,,,0.00,566,TxWx,2013-08-29 15:17:00,
2013-08-29 10:22:00,81.9,75.0,29.41,ESE,120,6.0,6.0,79,0.00,,,0.00,575,TxWx,2013-08-29 15:22:00,
2013-08-29 10:27:00,82.3,74.0,29.41,SSW,208,6.0,6.9,78,0.00,,,0.00,590,TxWx,2013-08-29 15:27:00,
2013-08-29 10:32:00,82.8,75.0,29.41,SSW,203,6.3,6.3,78,0.00,,,0.00,599,TxWx,2013-08-29 15:32:00,
2013-08-29 10:37:00,83.2,75.0,29.41,SE,142,9.6,9.6,77,0.00,,,0.00,604,TxWx,2013-08-29 15:37:00,
2013-08-29 10:42:00,83.4,75.0,29.41,South,178,2.4,2.7,77,0.00,,,0.00,625,TxWx,2013-08-29 15:42:00,
2013-08-29 10:47:00,83.7,75.0,29.40,ESE,120,5.4,5.7,76,0.00,,,0.00,615,TxWx,2013-08-29 15:47:00,
2013-08-29 10:52:00,83.3,74.0,29.40,SE,133,7.5,8.7,75,0.00,,,0.00,579,TxWx,2013-08-29 15:52:00,
2013-08-29 10:57:00,83.6,75.0,29.40,SSE,160,4.2,4.5,74,0.00,,,0.00,557,TxWx,2013-08-29 15:57:00,
2013-08-29 11:02:00,83.8,74.0,29.40,ESE,119,8.4,8.4,72,0.00,,,0.00,599,TxWx,2013-08-29 16:02:00,
2013-08-29 11:07:00,84.1,74.0,29.41,SSW,207,3.3,4.2,72,0.00,,,0.00,705,TxWx,2013-08-29 16:07:00,
2013-08-29 11:12:00,85.0,74.0,29.41,SW,216,6.9,6.9,71,0.00,,,0.00,735,TxWx,2013-08-29 16:12:00,
2013-08-29 11:17:00,85.0,74.0,29.41,South,188,5.4,5.7,70,0.00,,,0.00,763,TxWx,2013-08-29 16:17:00,
2013-08-29 11:22:00,85.7,74.0,29.41,WSW,245,2.7,3.0,67,0.00,,,0.00,710,TxWx,2013-08-29 16:22:00,
2013-08-29 11:27:00,85.9,74.0,29.40,SSW,208,11.1,11.1,67,0.00,,,0.00,708,TxWx,2013-08-29 16:27:00,
2013-08-29 11:32:00,85.7,74.0,29.40,SE,140,4.2,5.1,68,0.00,,,0.00,688,TxWx,2013-08-29 16:32:00,
2013-08-29 11:37:00,86.3,74.0,29.40,South,181,5.4,6.9,68,0.00,,,0.00,679,TxWx,2013-08-29 16:37:00,
2013-08-29 11:42:00,86.4,73.0,29.39,South,185,6.3,7.8,66,0.00,,,0.00,708,TxWx,2013-08-29 16:42:00,
2013-08-29 11:47:00,86.0,73.0,29.39,SSW,211,12.9,12.9,66,0.00,,,0.00,724,TxWx,2013-08-29 16:47:00,
2013-08-29 11:52:00,86.9,73.0,29.39,SW,220,9.3,9.3,64,0.00,,,0.00,721,TxWx,2013-08-29 16:52:00,
2013-08-29 11:57:00,87.0,73.0,29.39,WSW,237,5.1,6.0,63,0.00,,,0.00,752,TxWx,2013-08-29 16:57:00,
2013-08-29 12:02:00,86.9,73.0,29.39,SSE,164,5.1,5.1,64,0.00,,,0.00,696,TxWx,2013-08-29 17:02:00,
2013-08-29 12:07:00,87.3,72.0,29.39,South,191,4.8,5.1,62,0.00,,,0.00,718,TxWx,2013-08-29 17:07:00,
2013-08-29 12:12:00,87.0,73.0,29.39,South,180,3.6,3.6,63,0.00,,,0.00,676,TxWx,2013-08-29 17:12:00,
2013-08-29 12:17:00,87.8,74.0,29.39,SSW,206,2.7,3.0,64,0.00,,,0.00,699,TxWx,2013-08-29 17:17:00,
2013-08-29 12:22:00,87.3,72.0,29.39,SSW,205,8.1,10.2,62,0.00,,,0.00,728,TxWx,2013-08-29 17:22:00,
2013-08-29 12:27:00,87.5,72.0,29.39,WSW,237,9.3,10.8,62,0.00,,,0.00,727,TxWx,2013-08-29 17:27:00,
2013-08-29 12:32:00,87.8,73.0,29.39,South,184,4.5,4.5,61,0.00,,,0.00,735,TxWx,2013-08-29 17:32:00,
2013-08-29 12:37:00,87.8,73.0,29.38,South,175,7.5,9.0,61,0.00,,,0.00,709,TxWx,2013-08-29 17:37:00,
2013-08-29 12:42:00,88.0,72.0,29.38,WSW,244,5.1,5.1,59,0.00,,,0.00,699,TxWx,2013-08-29 17:42:00,
2013-08-29 12:47:00,88.7,72.0,29.38,South,185,8.7,9.6,59,0.00,,,0.00,686,TxWx,2013-08-29 17:47:00,
2013-08-29 12:52:00,88.0,70.0,29.37,SSW,204,15.9,15.9,56,0.00,,,0.00,751,TxWx,2013-08-29 17:52:00,
2013-08-29 12:57:00,87.8,71.0,29.38,South,187,8.7,8.7,58,0.00,,,0.00,750,TxWx,2013-08-29 17:57:00,
2013-08-29 13:02:00,89.1,72.0,29.38,SSW,209,7.2,7.2,58,0.00,,,0.00,758,TxWx,2013-08-29 18:02:00,
2013-08-29 13:07:00,88.3,71.0,29.37,SSW,192,3.6,3.6,57,0.00,,,0.00,768,TxWx,2013-08-29 18:07:00,
2013-08-29 13:12:00,88.1,70.0,29.37,SSW,203,13.2,13.2,56,0.00,,,0.00,780,TxWx,2013-08-29 18:12:00,
2013-08-29 13:17:00,88.7,71.0,29.37,South,182,9.3,9.6,57,0.00,,,0.00,847,TxWx,2013-08-29 18:17:00,
2013-08-29 13:22:00,89.2,70.0,29.37,SSW,193,6.9,7.5,54,0.00,,,0.00,691,TxWx,2013-08-29 18:22:00,
2013-08-29 13:27:00,89.0,69.0,29.36,SSW,194,5.4,6.6,53,0.00,,,0.00,749,TxWx,2013-08-29 18:27:00,
2013-08-29 13:32:00,89.4,68.0,29.36,SSW,200,9.0,9.3,50,0.00,,,0.00,519,TxWx,2013-08-29 18:32:00,
2013-08-29 13:37:00,89.3,68.0,29.36,WSW,247,5.7,5.7,50,0.00,,,0.00,912,TxWx,2013-08-29 18:37:00,
2013-08-29 13:42:00,88.9,68.0,29.36,SSW,206,12.9,12.9,50,0.00,,,0.00,595,TxWx,2013-08-29 18:42:00,
2013-08-29 13:47:00,88.5,67.0,29.36,SW,234,6.9,6.9,51,0.00,,,0.00,634,TxWx,2013-08-29 18:47:00,
2013-08-29 13:52:00,88.7,69.0,29.36,South,170,8.1,9.0,52,0.00,,,0.00,861,TxWx,2013-08-29 18:52:00,
2013-08-29 13:57:00,88.7,68.0,29.35,SSW,200,10.8,10.8,50,0.00,,,0.00,805,TxWx,2013-08-29 18:57:00,
2013-08-29 14:02:00,88.9,67.0,29.35,SW,218,12.6,13.2,49,0.00,,,0.00,761,TxWx,2013-08-29 19:02:00,
2013-08-29 14:07:00,89.0,68.0,29.35,SW,222,10.8,13.2,50,0.00,,,0.00,727,TxWx,2013-08-29 19:07:00,
2013-08-29 14:12:00,89.3,68.0,29.35,SSW,200,11.7,13.8,50,0.00,,,0.00,711,TxWx,2013-08-29 19:12:00,
2013-08-29 14:17:00,89.9,68.0,29.35,SW,214,9.6,10.5,50,0.00,,,0.00,709,TxWx,2013-08-29 19:17:00,
2013-08-29 14:22:00,90.3,67.0,29.34,SW,220,15.3,15.3,48,0.00,,,0.00,706,TxWx,2013-08-29 19:22:00,
2013-08-29 14:27:00,89.7,67.0,29.34,SSW,211,10.8,11.7,47,0.00,,,0.00,702,TxWx,2013-08-29 19:27:00,
2013-08-29 14:32:00,90.0,67.0,29.34,SW,233,6.9,7.5,47,0.00,,,0.00,701,TxWx,2013-08-29 19:32:00,
2013-08-29 14:37:00,90.0,67.0,29.33,SSW,192,12.6,12.6,48,0.00,,,0.00,692,TxWx,2013-08-29 19:37:00,
2013-08-29 14:42:00,89.9,68.0,29.33,SW,219,13.2,13.5,48,0.00,,,0.00,687,TxWx,2013-08-29 19:42:00,
2013-08-29 14:47:00,90.5,68.0,29.33,SW,225,9.9,10.2,48,0.00,,,0.00,688,TxWx,2013-08-29 19:47:00,
2013-08-29 14:52:00,90.5,67.0,29.33,SSW,211,15.0,15.0,45,0.00,,,0.00,696,TxWx,2013-08-29 19:52:00,
2013-08-29 14:57:00,90.2,65.0,29.33,WSW,247,12.6,16.2,45,0.00,,,0.00,652,TxWx,2013-08-29 19:57:00,
2013-08-29 15:02:00,90.5,66.0,29.33,WSW,254,5.7,5.7,45,0.00,,,0.00,361,TxWx,2013-08-29 20:02:00,
2013-08-29 15:07:00,90.4,65.0,29.32,SW,215,7.2,8.7,45,0.00,,,0.00,773,TxWx,2013-08-29 20:07:00,
2013-08-29 15:12:00,90.8,66.0,29.32,SSE,165,2.7,3.0,44,0.00,,,0.00,830,TxWx,2013-08-29 20:12:00,
2013-08-29 15:17:00,90.3,66.0,29.32,South,172,6.9,7.2,46,0.00,,,0.00,335,TxWx,2013-08-29 20:17:00,
2013-08-29 15:22:00,89.7,68.0,29.32,WSW,255,6.0,6.0,49,0.00,,,0.00,433,TxWx,2013-08-29 20:22:00,
2013-08-29 15:27:00,90.1,68.0,29.32,West,259,7.2,7.2,50,0.00,,,0.00,810,TxWx,2013-08-29 20:27:00,
2013-08-29 15:32:00,90.8,68.0,29.32,SSW,201,5.1,6.0,48,0.00,,,0.00,508,TxWx,2013-08-29 20:32:00,
2013-08-29 15:37:00,90.5,68.0,29.32,SSW,200,5.7,7.2,48,0.00,,,0.00,735,TxWx,2013-08-29 20:37:00,
2013-08-29 15:42:00,90.9,67.0,29.31,South,175,8.1,8.1,46,0.00,,,0.00,294,TxWx,2013-08-29 20:42:00,
2013-08-29 15:47:00,90.2,66.0,29.31,SSE,159,9.3,9.3,46,0.00,,,0.00,307,TxWx,2013-08-29 20:47:00,
2013-08-29 15:52:00,89.6,67.0,29.31,SSW,195,6.0,6.6,47,0.00,,,0.00,286,TxWx,2013-08-29 20:52:00,
2013-08-29 15:57:00,89.1,66.0,29.30,SSE,161,12.6,13.2,48,0.00,,,0.00,282,TxWx,2013-08-29 20:57:00,
2013-08-29 16:02:00,89.1,68.0,29.30,SSW,205,4.5,4.5,50,0.00,,,0.00,261,TxWx,2013-08-29 21:02:00,
2013-08-29 16:07:00,88.9,68.0,29.30,SSW,211,6.6,6.6,51,0.00,,,0.00,238,TxWx,2013-08-29 21:07:00,
2013-08-29 16:12:00,88.7,68.0,29.30,SW,226,13.2,13.2,51,0.00,,,0.00,245,TxWx,2013-08-29 21:12:00,
2013-08-29 16:17:00,88.4,68.0,29.30,SSW,192,2.7,2.7,52,0.00,,,0.00,264,TxWx,2013-08-29 21:17:00,
2013-08-29 16:22:00,88.3,68.0,29.30,SSW,213,3.6,5.1,52,0.00,,,0.00,265,TxWx,2013-08-29 21:22:00,
2013-08-29 16:27:00,88.1,68.0,29.30,South,189,12.3,14.4,51,0.00,,,0.00,271,TxWx,2013-08-29 21:27:00,
2013-08-29 16:32:00,88.1,67.0,29.30,SSW,197,8.7,8.7,51,0.00,,,0.00,264,TxWx,2013-08-29 21:32:00,
2013-08-29 16:37:00,88.3,68.0,29.29,South,174,3.6,3.9,52,0.00,,,0.00,263,TxWx,2013-08-29 21:37:00,
2013-08-29 16:42:00,88.0,67.0,29.29,South,181,10.8,10.8,50,0.00,,,0.00,249,TxWx,2013-08-29 21:42:00,
2013-08-29 16:47:00,88.0,67.0,29.29,SSW,211,5.7,5.7,50,0.00,,,0.00,243,TxWx,2013-08-29 21:47:00,
2013-08-29 16:52:00,87.8,67.0,29.29,WSW,241,6.6,6.6,50,0.00,,,0.00,241,TxWx,2013-08-29 21:52:00,
2013-08-29 16:57:00,87.8,67.0,29.29,SSW,203,2.7,2.7,50,0.00,,,0.00,233,TxWx,2013-08-29 21:57:00,
2013-08-29 17:02:00,87.8,67.0,29.29,South,182,11.4,12.0,50,0.00,,,0.00,236,TxWx,2013-08-29 22:02:00,
2013-08-29 17:07:00,87.7,67.0,29.29,SW,227,6.6,9.0,51,0.00,,,0.00,256,TxWx,2013-08-29 22:07:00,
2013-08-29 17:12:00,87.8,68.0,29.29,SSE,163,5.4,5.4,51,0.00,,,0.00,243,TxWx,2013-08-29 22:12:00,
2013-08-29 17:17:00,87.9,67.0,29.28,SSW,192,17.4,17.7,51,0.00,,,0.00,505,TxWx,2013-08-29 22:17:00,
2013-08-29 17:22:00,88.6,68.0,29.29,SW,235,6.3,6.3,50,0.00,,,0.00,526,TxWx,2013-08-29 22:22:00,
2013-08-29 17:27:00,88.7,68.0,29.28,SSW,205,6.0,6.9,51,0.00,,,0.00,471,TxWx,2013-08-29 22:27:00,
2013-08-29 17:32:00,88.8,68.0,29.29,South,187,8.4,10.2,50,0.00,,,0.00,260,TxWx,2013-08-29 22:32:00,
2013-08-29 17:37:00,88.9,68.0,29.28,West,259,3.9,3.9,51,0.00,,,0.00,262,TxWx,2013-08-29 22:37:00,
2013-08-29 17:42:00,88.3,68.0,29.28,SW,219,7.8,9.3,51,0.00,,,0.00,123,TxWx,2013-08-29 22:42:00,
2013-08-29 17:47:00,87.9,68.0,29.28,WSW,237,3.9,3.9,52,0.00,,,0.00,260,TxWx,2013-08-29 22:47:00,
2013-08-29 17:52:00,87.6,68.0,29.28,SW,224,10.2,10.5,53,0.00,,,0.00,154,TxWx,2013-08-29 22:52:00,
2013-08-29 17:57:00,87.4,68.0,29.28,South,178,14.4,16.8,53,0.00,,,0.00,159,TxWx,2013-08-29 22:57:00,
2013-08-29 18:02:00,87.4,68.0,29.28,SSW,205,3.6,3.6,54,0.00,,,0.00,198,TxWx,2013-08-29 23:02:00,
2013-08-29 18:07:00,87.4,69.0,29.27,WSW,251,4.5,4.5,55,0.00,,,0.00,311,TxWx,2013-08-29 23:07:00,
2013-08-29 18:12:00,87.5,69.0,29.27,SW,228,9.6,10.5,55,0.00,,,0.00,163,TxWx,2013-08-29 23:12:00,
2013-08-29 18:17:00,87.5,69.0,29.28,SSW,201,4.8,5.1,56,0.00,,,0.00,175,TxWx,2013-08-29 23:17:00,
2013-08-29 18:22:00,87.4,69.0,29.28,SSW,213,10.2,10.8,56,0.00,,,0.00,267,TxWx,2013-08-29 23:22:00,
2013-08-29 18:27:00,87.8,70.0,29.28,WSW,250,2.7,3.3,56,0.00,,,0.00,308,TxWx,2013-08-29 23:27:00,
2013-08-29 18:32:00,87.9,70.0,29.28,SSW,202,4.8,5.7,56,0.00,,,0.00,276,TxWx,2013-08-29 23:32:00,
2013-08-29 18:37:00,88.0,71.0,29.29,WNW,289,3.0,3.6,57,0.00,,,0.00,242,TxWx,2013-08-29 23:37:00,
2013-08-29 18:42:00,87.9,71.0,29.28,SW,229,5.4,5.7,57,0.00,,,0.00,219,TxWx,2013-08-29 23:42:00,
2013-08-29 18:47:00,87.8,71.0,29.29,SW,223,5.1,5.1,57,0.00,,,0.00,175,TxWx,2013-08-29 23:47:00,
2013-08-29 18:52:00,87.5,71.0,29.28,SSW,203,6.6,6.6,58,0.00,,,0.00,180,TxWx,2013-08-29 23:52:00,
2013-08-29 18:57:00,87.3,70.0,29.28,SSW,193,9.9,9.9,58,0.00,,,0.00,179,TxWx,2013-08-29 23:57:00,
2013-08-29 19:02:00,87.2,70.0,29.28,SSW,202,5.4,5.4,58,0.00,,,0.00,144,TxWx,2013-08-30 00:02:00,
2013-08-29 19:07:00,86.9,71.0,29.29,SSW,211,3.3,3.9,59,0.00,,,0.00,90,TxWx,2013-08-30 00:07:00,
2013-08-29 19:12:00,86.5,71.0,29.28,SSW,207,9.0,9.0,59,0.00,,,0.00,42,TxWx,2013-08-30 00:12:00,
2013-08-29 19:17:00,86.3,70.0,29.28,South,191,6.3,7.8,60,0.00,,,0.00,38,TxWx,2013-08-30 00:17:00,
2013-08-29 19:22:00,86.0,71.0,29.28,WSW,257,3.0,3.0,61,0.00,,,0.00,38,TxWx,2013-08-30 00:22:00,
2013-08-29 19:27:00,86.0,71.0,29.28,WSW,252,2.1,2.4,61,0.00,,,0.00,37,TxWx,2013-08-30 00:27:00,
2013-08-29 19:32:00,85.8,71.0,29.28,SSW,205,7.2,7.2,61,0.00,,,0.00,61,TxWx,2013-08-30 00:32:00,
2013-08-29 19:37:00,85.8,71.0,29.28,South,180,4.5,4.5,62,0.00,,,0.00,52,TxWx,2013-08-30 00:37:00,
2013-08-29 19:42:00,85.6,71.0,29.28,SSW,208,2.1,2.4,62,0.00,,,0.00,30,TxWx,2013-08-30 00:42:00,
2013-08-29 19:47:00,85.4,71.0,29.28,South,179,3.0,3.0,63,0.00,,,0.00,19,TxWx,2013-08-30 00:47:00,
2013-08-29 19:52:00,85.2,71.0,29.28,SSW,212,2.4,2.7,63,0.00,,,0.00,13,TxWx,2013-08-30 00:52:00,
2013-08-29 19:57:00,84.9,71.0,29.27,South,180,2.7,2.7,64,0.00,,,0.00,9,TxWx,2013-08-30 00:57:00,
2013-08-29 20:02:00,84.6,71.0,29.27,South,174,2.1,2.4,64,0.00,,,0.00,7,TxWx,2013-08-30 01:02:00,
2013-08-29 20:07:00,84.4,71.0,29.27,South,182,4.5,4.8,65,0.00,,,0.00,6,TxWx,2013-08-30 01:07:00,
2013-08-29 20:12:00,84.1,71.0,29.27,South,183,1.8,1.8,66,0.00,,,0.00,5,TxWx,2013-08-30 01:12:00,
2013-08-29 20:17:00,83.8,71.0,29.27,South,188,6.0,6.0,66,0.00,,,0.00,4,TxWx,2013-08-30 01:17:00,
2013-08-29 20:22:00,83.8,71.0,29.27,South,177,4.8,5.4,66,0.00,,,0.00,4,TxWx,2013-08-30 01:22:00,
2013-08-29 20:27:00,83.7,71.0,29.27,SSW,195,1.2,1.8,66,0.00,,,0.00,4,TxWx,2013-08-30 01:27:00,
2013-08-29 20:32:00,83.6,71.0,29.27,South,177,5.1,5.7,66,0.00,,,0.00,4,TxWx,2013-08-30 01:32:00,
2013-08-29 20:37:00,83.4,71.0,29.27,South,191,3.0,3.0,67,0.00,,,0.00,4,TxWx,2013-08-30 01:37:00,
2013-08-29 20:42:00,83.2,71.0,29.27,SSE,168,2.7,3.6,67,0.00,,,0.00,4,TxWx,2013-08-30 01:42:00,
2013-08-29 20:47:00,82.9,71.0,29.27,South,177,2.7,3.3,68,0.00,,,0.00,4,TxWx,2013-08-30 01:47:00,
2013-08-29 20:52:00,82.8,71.0,29.27,SSE,166,3.9,3.9,68,0.00,,,0.00,4,TxWx,2013-08-30 01:52:00,
2013-08-29 20:57:00,82.6,71.0,29.27,South,184,2.7,3.6,68,0.00,,,0.00,4,TxWx,2013-08-30 01:57:00,
2013-08-29 21:02:00,82.5,71.0,29.27,South,175,3.9,4.2,69,0.00,,,0.00,4,TxWx,2013-08-30 02:02:00,
2013-08-29 21:07:00,82.3,71.0,29.27,South,174,4.8,5.1,69,0.00,,,0.00,4,TxWx,2013-08-30 02:07:00,
2013-08-29 21:12:00,82.1,71.0,29.26,South,185,5.7,5.7,69,0.00,,,0.00,4,TxWx,2013-08-30 02:12:00,
2013-08-29 21:17:00,82.0,71.0,29.27,South,186,3.0,3.3,69,0.00,,,0.00,4,TxWx,2013-08-30 02:17:00,
2013-08-29 21:22:00,81.9,71.0,29.27,SSE,160,4.2,4.8,70,0.00,,,0.00,4,TxWx,2013-08-30 02:22:00,
2013-08-29 21:27:00,81.8,71.0,29.27,SSW,205,4.8,4.8,70,0.00,,,0.00,4,TxWx,2013-08-30 02:27:00,
2013-08-29 21:32:00,81.7,71.0,29.27,South,184,2.7,2.7,70,0.00,,,0.00,4,TxWx,2013-08-30 02:32:00,
2013-08-29 21:37:00,81.6,71.0,29.27,SSE,149,6.0,7.5,70,0.00,,,0.00,4,TxWx,2013-08-30 02:37:00,
2013-08-29 21:42:00,81.5,70.0,29.27,South,190,3.6,3.6,71,0.00,,,0.00,4,TxWx,2013-08-30 02:42:00,
2013-08-29 21:47:00,81.3,70.0,29.27,South,187,4.2,4.5,71,0.00,,,0.00,4,TxWx,2013-08-30 02:47:00,
2013-08-29 21:52:00,81.1,71.0,29.27,South,191,6.3,6.3,71,0.00,,,0.00,4,TxWx,2013-08-30 02:52:00,
2013-08-29 21:57:00,81.0,71.0,29.27,SSE,159,3.9,5.4,72,0.00,,,0.00,4,TxWx,2013-08-30 02:57:00,
2013-08-29 22:02:00,80.8,71.0,29.27,SSW,197,6.3,6.3,72,0.00,,,0.00,4,TxWx,2013-08-30 03:02:00,
2013-08-29 22:07:00,80.8,71.0,29.26,South,179,4.2,4.5,72,0.00,,,0.00,4,TxWx,2013-08-30 03:07:00,
2013-08-29 22:12:00,80.7,71.0,29.27,SW,220,3.0,3.0,73,0.00,,,0.00,4,TxWx,2013-08-30 03:12:00,
2013-08-29 22:17:00,80.6,71.0,29.27,South,173,3.9,4.8,73,0.00,,,0.00,4,TxWx,2013-08-30 03:17:00,
2013-08-29 22:22:00,80.4,71.0,29.27,South,190,3.9,4.2,73,0.00,,,0.00,4,TxWx,2013-08-30 03:22:00,
2013-08-29 22:27:00,80.2,71.0,29.27,SSW,204,3.3,3.3,74,0.00,,,0.00,4,TxWx,2013-08-30 03:27:00,
2013-08-29 22:32:00,80.0,71.0,29.27,South,170,1.2,1.5,74,0.00,,,0.00,4,TxWx,2013-08-30 03:32:00,
2013-08-29 22:37:00,79.8,71.0,29.27,SSW,196,6.3,6.3,75,0.00,,,0.00,4,TxWx,2013-08-30 03:37:00,
2013-08-29 22:42:00,79.7,71.0,29.27,South,185,5.7,6.3,75,0.00,,,0.00,4,TxWx,2013-08-30 03:42:00,
2013-08-29 22:47:00,79.7,71.0,29.27,SSW,192,4.8,5.7,75,0.00,,,0.00,4,TxWx,2013-08-30 03:47:00,
2013-08-29 22:52:00,79.5,72.0,29.27,South,174,4.2,5.1,76,0.00,,,0.00,4,TxWx,2013-08-30 03:52:00,
2013-08-29 22:57:00,79.6,72.0,29.27,South,187,3.9,3.9,76,0.00,,,0.00,4,TxWx,2013-08-30 03:57:00,
2013-08-29 23:01:00,79.7,72.0,29.27,SSW,209,5.1,5.4,76,0.00,,,0.00,4,TxWx,2013-08-30 04:01:00,
2013-08-29 23:06:00,79.6,72.0,29.27,South,185,6.6,7.5,76,0.00,,,0.00,4,TxWx,2013-08-30 04:06:00,
2013-08-29 23:11:00,79.5,72.0,29.26,SSW,200,6.3,6.3,76,0.00,,,0.00,4,TxWx,2013-08-30 04:11:00,
2013-08-29 23:16:00,79.5,72.0,29.27,South,170,6.3,6.3,76,0.00,,,0.00,4,TxWx,2013-08-30 04:16:00,
2013-08-29 23:21:00,79.5,72.0,29.27,South,190,8.7,8.7,76,0.00,,,0.00,4,TxWx,2013-08-30 04:21:00,
2013-08-29 23:26:00,79.4,71.0,29.27,SSW,194,4.2,4.2,76,0.00,,,0.00,4,TxWx,2013-08-30 04:26:00,
2013-08-29 23:31:00,79.3,71.0,29.26,SSE,167,4.8,4.8,76,0.00,,,0.00,4,TxWx,2013-08-30 04:31:00,
2013-08-29 23:36:00,79.3,71.0,29.26,SSW,208,5.4,5.4,76,0.00,,,0.00,4,TxWx,2013-08-30 04:36:00,
2013-08-29 23:41:00,79.3,71.0,29.26,South,175,7.8,7.8,76,0.00,,,0.00,4,TxWx,2013-08-30 04:41:00,
2013-08-29 23:46:00,79.4,71.0,29.26,SSW,198,7.5,7.5,76,0.00,,,0.00,4,TxWx,2013-08-30 04:46:00,
2013-08-29 23:51:00,79.5,71.0,29.26,SSE,154,6.6,6.6,76,0.00,,,0.00,4,TxWx,2013-08-30 04:51:00,
2013-08-29 23:56:00,79.4,71.0,29.26,SSW,207,9.9,9.9,76,0.00,,,0.00,4,TxWx,2013-08-30 04:56:00,